Terminal Aerodrome Forecast
Issued by NWS

Home | Current Version | Previous Version | Text Only | Print | Product List | Glossary On
Versions: 1 2 3 4 5 6 7 8 9 10 11 12 13 14 15 16 17 18 19 20
000
FTUS45 KTFX 180500
TAFGTF
TAF
KGTF 180527Z 1806/1906 20010KT P6SM SCT250
     FM181200 21014KT P6SM BKN090
     FM190300 22010KT P6SM FEW120=

USA.gov is the U.S. government's official web portal to all federal, state and local government web resources and services.